Погода в Борках

Россия / Псковская область     56°04′48″N   30°14′55″E
темп.,
°C
ветер,
м/с
пор.,
м/с
влажн.,
%
обл.,
%
осадки,
мм/ч
давл.,
гПа
погр.,
м
10 мая, пн
пн1000:00+3юз22737 0.0 102417
03:00+3ю257316 0.0 102586
06:00+3ю3107374 0.0 1026206
09:00+8ю3106391 0.0 1026380
12:00+14ююз464837 0.0 1026995
15:00+17ююз4548100 0.0 10251281
18:00+16ю345840 0.0 10251074
21:00+10ююв25845 0.0 102671
11 мая, вт
вт1100:00+7ююв25915 0.0 102790
03:00+6ююв25875 0.0 102877
06:00+6ююв24825 0.0 102882
09:00+13ююв355618 0.0 1028422
12:00+17вюв344337 0.0 10271014
15:00+19вюв35365 0.0 10261311
18:00+18вюв35450 0.0 1025944
21:00+11вюв38715 0.0 1025143
12 мая, ср
ср1200:00+9вюв2108432 0.0 1025203
03:00+8вюв269411 0.0 1025115
06:00+9вюв279815 0.0 1025176
09:00+13юв357460 0.0 1025484
12:00+18юв35484 0.0 10231373
15:00+20вюв254215 0.0 10211618
18:00+15в3987100 1.1 1017396
21:00+14св41296100 6.5 1014795
13 мая, чт
чт1300:00+11в6129193 4.1 1013997
03:00+8юв61392100 4.4 10151145
06:00+8вюв51292100 0.0 1016790
09:00+9вюв4108894 0.0 1015720
12:00+10юв498148 0.4 10151016
15:00+13ююв4866100 1.1 10141461
18:00+12ююв3877100 0.6 1014943
21:00+10юв398316 0.6 1015320
14 мая, пт
пт1400:00+8юв3119425 0.0 1015262
03:00+7вюв3109699 0.0 1015229
06:00+9вюв31287100 0.0 1014345
09:00+12вюв41291100 0.3 1012432
12:00+16вюв61282100 0.4 1011883
15:00+18юв51083100 2.4 10091208
18:00+14ю279594 5.7 1008323
21:00+12ююв27987 6.1 1008186